Regional Weather Roundup
Issued by NWS

Home | Current Version | Previous Version | Text Only | Print | Product List | Glossary Off
Versions: 1 2 3 4 5 6 7 8 9 10 11 12 13 14 15 16 17 18 19 20 21 22 23 24 25 26 27 28 29 30 31 32 33 34 35 36 37 38 39 40 41 42 43 44 45 46 47 48 49 50

000
ASUS45 KCYS 261310
RWRWY

WYOMING REGIONAL WEATHER ROUNDUP
NATIONAL WEATHER SERVICE CHEYENNE WY
700 AM MDT MON JUN 26 2017

NOTE:  "FAIR" INDICATES FEW OR NO CLOUDS BELOW 12,000 FEET
WITH NO SIGNIFICANT WEATHER AND/OR OBSTRUCTIONS TO VISIBILITY.

WYZ001-261400-
YELLOWSTONE NATIONAL PARK

CITY           SKY/WX    TMP DP  RH WIND       PRES   REMARKS
LK YELLOWSTONE   N/A     37  35  92 CALM      30.42S
W YELLOWSTONE  NOT AVBL

$$
WYZ002>013-054>058-071-098>099-261400-
NORTHERN WYOMING

CITY           SKY/WX    TMP DP  RH WIND       PRES   REMARKS
JACKSON        SUNNY     43  37  81 CALM      30.35S
CODY           NOT AVBL
GREYBULL       FAIR      54  38  54 CALM      30.19R
WORLAND        FAIR      56  42  59 NW3       30.19F
SHERIDAN       FAIR      54  43  66 CALM      30.19S
BUFFALO        FAIR      59  42  53 CALM      30.23S
GILLETTE       FAIR      57  35  43 S17       30.23R
NEWCASTLE      FAIR      52  32  46 CALM      30.29R

$$
WYZ014>020-022>026-101>103-261400-
CENTRAL WYOMING

CITY           SKY/WX    TMP DP  RH WIND       PRES   REMARKS
BIG PINEY      FAIR      44  39  82 CALM      30.39R
PINEDALE       FAIR      45  39  81 NW5       30.39S
DUBOIS         FAIR      45  34  65 NW10      30.38F
LANDER         FAIR      55  39  54 CALM      30.29S
RIVERTON       FAIR      56  39  53 NW6       30.29S
CASPER         FAIR      52  38  58 CALM      30.29R
DOUGLAS        FAIR      51  39  63 S5        30.29R

$$
WYZ021-027>030-104>119-261400-
SOUTHERN WYOMING

CITY           SKY/WX    TMP DP  RH WIND       PRES   REMARKS
EVANSTON       FAIR      54  37  52 E7        30.33S
KEMMERER         N/A     54  32  43 N10       30.36S
FORT BRIDGER   FAIR      53  37  53 NW3       30.38R
ROCK SPRINGS   FAIR      55  29  36 E5        30.34S
DIXON          FAIR      52  31  44 E5        30.37R
RAWLINS        FAIR      53  38  56 CALM      30.36S
SARATOGA       FAIR      50  34  53 SE5       30.39R
LARAMIE        FAIR      47  42  83 S6        30.38S
CHEYENNE       FAIR      53  44  71 W8        30.33S
TORRINGTON     FAIR      51  39  63 W6        30.25R
PINE BLUFFS    FAIR      52  52 100 CALM      30.29S

$$



USA.gov is the U.S. government's official web portal to all federal, state and local government web resources and services.